LEO 3

导读

LEO 3(近地3)是加拿大Telesat公司的低轨通信技术验证卫星,由多伦多大学太空飞行实验室研制,于北京时间2023年7月18日,搭乘美国火箭实验室电子号火箭从新西兰发射升空,进入1000千米高度的太阳同步轨道。该卫星将在Telesat公司LEO一期卫星退役后,持续支持客户及生态系统供应商开展相关技术测试,为后续低轨通信星座建设提供验证支撑。

Basic Information
目录编号:
57392
目录名称:
LEO 3
国际标识:
2023-100G
轨道中心:
EARTH
卫星名称:
LEO 3
卫星全名:
--
卫星状态:
在轨 (已飞行1151 天)
发射日期:
2023-07-18 UTC
国别 :
加拿大 (CA)
星等 :
--
This satellite is enrolled in the Space Conjunction Data Service (SCDS) and the current flight risk assessment level is: No High Risk
Orbit Information
数据来源 国际轨道数据
星历时间: 2026-09-11T15:35:57+0800
7小时前
查看轨道信息
半长轴: 7383.383km
偏心率: 0.0018723
轨道倾角: 99.575°
近地点辐角 152.178°
升交点赤经 17.877°
平近点角 208.037°
近地点: 991.422km
远地点: 1019.07km
周期: 105.231分钟
每日圈数: 13.684208
Detailed Information
使用方式:
暂无
2D Orbit Map
3D Orbit Map
Orbit Altitude Analysis Chart
Orbit Inclination Analysis Chart
Orbit Comprehensive Analysis Chart
View Comprehensive Chart
Conjunction Data List
Event ID Objects TCA Miss Dist (km) Collision Risk Probability Collision Risk Index (CRI) Action
CDM_260905-043103-434605-739225
LEO 3 (57392)
2026-09-05T
04:31:46+0000
1.032 km
极远距离
2.39333E-5 中风险 0.63
CDM_260913-072903-778105-739225
LEO 3 (57392)
2026-09-13T
07:29:51+0000
2.661 km
极远距离
1.448616E-6 低风险 0.38
Miss Distance Evolution Trend with All Objects
Collision Probability Evolution Trend with All Objects